{"data":{"norad_id":49408,"epoch":"2026-05-25T06:00:02.000160Z","epoch_age_seconds":46632,"freshness":"FRESH","line1":"1 49408U 21104A   26145.25002315  .00376263  00000+0  15198-2 0  9991","line2":"2 49408  53.2141 215.9735 0001875  66.0986 295.3474 15.84815222  5929","mean_motion":15.84815222,"eccentricity":0.0001875,"inclination_deg":53.2141,"raan_deg":215.9735,"arg_perigee_deg":66.0986,"mean_anomaly_deg":295.3474,"bstar":0.0015198,"rev_number":592,"period_min":90.862327671408,"perigee_km":315.58976799936,"apogee_km":318.10038627829,"semimajor_km":6694.9820771388,"source":"CELESTRAK","updated_at":"2026-05-25T13:38:16.794043Z"}}